This is the latest recevied weather packets stored in our database for station/object HF3P-11. If no packets are shown the sender has not sent any weather packets the latest 10 day(s).
| Time | Temp. | Humidity | Pressure | Rain* | Wind** | Luminosity | Snow |
|---|---|---|---|---|---|---|---|
| 1777856711 | 15° C | 49% | 1004.1 hPa | 0 mm | - | - | - |
| 1777856403 | 15° C | 49% | 1003.9 hPa | 0 mm | - | - | - |
| 1777856112 | 15° C | 49% | 1004 hPa | 0 mm | - | - | - |
| 1777855803 | 15.56° C | 48% | 1004.1 hPa | 0 mm | - | - | - |
| 1777855511 | 15.56° C | 48% | 1004 hPa | 0 mm | - | - | - |
| 1777855211 | 15.56° C | 48% | 1004.3 hPa | 0 mm | - | - | - |
| 1777854904 | 15.56° C | 48% | 1004.2 hPa | 0 mm | - | - | - |
| 1777854611 | 16.67° C | 48% | 1004.1 hPa | 0 mm | - | - | - |
| 1777854303 | 15.56° C | 47% | 1004 hPa | 0 mm | - | - | - |
| 1777854012 | 15.56° C | 47% | 1004.2 hPa | 0 mm | - | - | - |
| 1777853704 | 16.11° C | 47% | 1004.1 hPa | 0 mm | - | - | - |
| 1777853410 | 16.11° C | 46% | 1004 hPa | 0 mm | - | - | - |
| 1777853103 | 16.11° C | 46% | 1004 hPa | 0 mm | - | - | - |
| 1777852811 | 16.11° C | 46% | 1004.2 hPa | 0 mm | - | - | - |
| 1777852504 | 16.11° C | 45% | 1004 hPa | 0 mm | - | - | - |
| 1777852211 | 15.56° C | 45% | 1004.1 hPa | 0 mm | - | - | - |
| 1777851904 | 16.67° C | 45% | 1004.1 hPa | 0 mm | - | - | - |
| 1777851611 | 16.67° C | 44% | 1004.2 hPa | 0 mm | - | - | - |
| 1777851304 | 16.67° C | 44% | 1004.2 hPa | 0 mm | - | - | - |
| 1777851010 | 16.67° C | 44% | 1004.3 hPa | 0 mm | - | - | - |
| 1777850703 | 16.67° C | 44% | 1004.2 hPa | 0 mm | - | - | - |
| 1777850412 | 16.67° C | 44% | 1004.2 hPa | 0 mm | - | - | - |
| 1777850104 | 16.67° C | 43% | 1004.3 hPa | 0 mm | - | - | - |
| 1777849811 | 16.67° C | 43% | 1004.3 hPa | 0 mm | - | - | - |
| 1777849504 | 17.22° C | 42% | 1004.2 hPa | 0 mm | - | - | - |
* Rain latest hour (hover to see other rain measurements)
** Current wind speed in m/s (hover to see current wind gust speed)